TimeEST,TemperatureF,Dew PointF,Humidity,Sea Level PressureIn,VisibilityMPH,Wind Direction,Wind SpeedMPH,Gust SpeedMPH,PrecipitationIn,Events,Conditions,WindDirDegrees,DateUTC
12:51 AM,23.0,7.0,50,30.35,10.0,NW,15.0,-,N/A,,Clear,320,2013-02-10 05:51:00
1:51 AM,21.9,6.1,51,30.36,10.0,NW,13.8,19.6,N/A,,Clear,320,2013-02-10 06:51:00
2:51 AM,21.0,7.0,55,30.37,10.0,NNW,12.7,19.6,N/A,,Clear,330,2013-02-10 07:51:00
3:51 AM,21.0,7.0,55,30.37,10.0,NNW,8.1,-,N/A,,Clear,340,2013-02-10 08:51:00
4:51 AM,19.9,6.1,55,30.38,10.0,NNW,6.9,-,N/A,,Clear,340,2013-02-10 09:51:00
5:51 AM,19.9,7.0,57,30.40,10.0,WNW,10.4,-,N/A,,Clear,300,2013-02-10 10:51:00
6:51 AM,19.9,7.0,57,30.43,10.0,NNW,6.9,-,N/A,,Partly Cloudy,330,2013-02-10 11:51:00
7:51 AM,19.9,7.0,57,30.44,10.0,NNE,4.6,-,N/A,,Scattered Clouds,20,2013-02-10 12:51:00
8:51 AM,23.0,6.1,48,30.47,10.0,NNW,8.1,-,N/A,,Scattered Clouds,340,2013-02-10 13:51:00
9:51 AM,24.1,8.1,51,30.48,10.0,WNW,6.9,-,N/A,,Scattered Clouds,300,2013-02-10 14:51:00
10:51 AM,26.1,8.1,47,30.49,10.0,NW,6.9,-,N/A,,Scattered Clouds,320,2013-02-10 15:51:00
11:51 AM,28.9,8.1,41,30.47,10.0,NNW,3.5,-,N/A,,Scattered Clouds,340,2013-02-10 16:51:00
12:51 PM,30.9,9.0,40,30.43,10.0,Calm,Calm,-,N/A,,Scattered Clouds,0,2013-02-10 17:51:00
1:51 PM,33.1,9.0,37,30.41,10.0,Calm,Calm,-,N/A,,Scattered Clouds,0,2013-02-10 18:51:00
2:51 PM,36.0,10.9,36,30.40,10.0,Calm,Calm,-,N/A,,Scattered Clouds,0,2013-02-10 19:51:00
3:51 PM,36.0,12.9,39,30.38,10.0,Calm,Calm,-,N/A,,Scattered Clouds,0,2013-02-10 20:51:00
4:51 PM,35.1,14.0,42,30.38,10.0,South,5.8,-,N/A,,Mostly Cloudy,180,2013-02-10 21:51:00
5:51 PM,34.0,15.1,46,30.39,10.0,South,8.1,-,N/A,,Mostly Cloudy,190,2013-02-10 22:51:00
6:51 PM,32.0,9.0,38,30.39,10.0,South,5.8,-,N/A,,Mostly Cloudy,180,2013-02-10 23:51:00
7:51 PM,32.0,14.0,48,30.39,10.0,SSW,6.9,-,N/A,,Mostly Cloudy,200,2013-02-11 00:51:00
8:51 PM,33.1,21.0,61,30.38,10.0,South,5.8,-,N/A,,Mostly Cloudy,180,2013-02-11 01:51:00
9:51 PM,33.1,24.1,70,30.36,10.0,South,8.1,-,N/A,,Overcast,180,2013-02-11 02:51:00
10:51 PM,33.1,24.1,70,30.34,10.0,South,8.1,-,N/A,,Overcast,180,2013-02-11 03:51:00
11:51 PM,34.0,23.0,64,30.34,10.0,South,8.1,-,N/A,,Overcast,190,2013-02-11 04:51:00